Погода во Флорида Сити

США     25°27′05″N   80°28′56″W
темп.,
°C
ветер,
м/с
пор.,
м/с
влажн.,
%
обл.,
%
осадки,
мм/ч
давл.,
гПа
погр.,
м
17 октября, вс
вс1723:00+26в24747 0.1 1015106
02:00+24всв11763 0.1 101411
05:00+24зсз11777 0.0 101312
08:00+23сз23795 0.0 101470
11:00+28ссз33551 0.0 1015834
14:00+31ссз23457 0.0 10131923
17:00+28в4560100 0.0 1013269
20:00+26св227253 0.4 101468
18 октября, пн
пн1823:00+25ссв47755 0.1 1016229
02:00+25св5107814 0.1 1015513
05:00+25св6107397 0.1 1014712
08:00+25св6107176 0.2 1016708
11:00+27св775844 0.0 10171354
14:00+28всв76528 0.0 10161544
17:00+27всв775236 0.0 10151394
20:00+24всв496292 0.0 1016260
19 октября, вт
вт1923:00+25всв585851 0.0 1017319
02:00+23св476294 0.0 1017143
05:00+22св36655 0.0 1017117
08:00+23св486626 0.0 1018190
11:00+27всв775010 0.0 10191633
14:00+29всв764719 0.0 10181698
17:00+27всв6651100 0.0 10171477
20:00+24всв496724 0.0 1019300
20 октября, ср
ср2023:00+24всв6974100 0.2 1019534
02:00+24всв5876100 0.6 1019461
05:00+24всв5977100 0.3 1018431
08:00+25всв697661 0.5 1020520
11:00+28всв776274 0.0 10201165
14:00+29всв775686 0.1 10191562
17:00+27всв6661100 0.0 10181027
20:00+25всв486793 0.1 1019289
21 октября, чт
чт2123:00+25в486588 0.0 1019316
02:00+25в487198 0.0 1018348
05:00+25в3771100 0.0 1017272
08:00+25всв3773100 0.1 1019259
11:00+29в666394 0.2 10201096
14:00+29в6659100 0.4 10181410
17:00+28в666491 0.1 10171176
20:00+26в477594 0.3 1018334